1483365601.22,1007,10.75,72384.8,-10.13,-13.73,-13.19,0,*59
1483365602.43,1008,10.75,72398.8,-10.15,-13.51,-13.23,0,*59
1483365603.66,1009,10.75,72410.0,-10.15,-13.43,-13.29,0,*51
1483365604.86,1010,10.75,72430.0,-10.15,-13.15,-13.11,0,*51
1483365606.08,1011,10.75,72452.0,-10.15,-13.01,-13.15,0,*51
1483365607.31,1012,10.75,72422.5,-10.15,-12.97,-13.37,0,*5C
1483365608.51,1013,10.75,72426.8,-10.19,-12.97,-13.69,0,*5A
1483365609.75,1014,10.75,72430.3,-10.19,-13.23,-13.83,0,*57
1483365611.01,1015,10.75,72436.0,-10.19,-13.29,-13.97,0,*59
1483365612.27,1016,10.75,72454.0,-10.15,-13.97,-14.75,0,*58
1483365613.49,1017,10.75,72454.3,-10.19,-14.15,-14.69,0,*55
1483365614.75,1018,10.75,72454.0,-10.19,-13.97,-14.75,0,*5A
1483365615.97,1019,10.75,72456.3,-10.19,-14.23,-15.25,0,*57
1483365617.21,1020,10.75,72450.3,-10.19,-14.65,-15.57,0,*5A
1483365618.42,1021,10.75,72450.5,-10.19,-15.15,-15.99,0,*5F
1483365619.68,1022,10.75,72442.3,-10.21,-15.75,-16.23,0,*53
1483365620.94,1023,10.75,72442.3,-10.21,-15.75,-15.89,0,*51
1483365622.2,1024,10.75,72434.3,-10.21,-15.67,-15.57,0,*56
1483365623.44,1025,10.69,72434.5,-10.21,-15.29,-15.29,0,*54
1483365624.69,1026,10.69,72428.5,-10.19,-14.83,-15.25,0,*51
1483365625.94,1027,10.75,72440.5,-10.19,-14.83,-15.29,0,*5C
1483365627.17,1028,10.75,72452.3,-10.19,-14.97,-15.63,0,*58
1483365628.4,1029,10.75,72452.5,-10.19,-15.39,-16.03,0,*59
1483365629.63,1030,10.75,72456.3,-10.19,-15.71,-16.27,0,*5B
1483365630.84,1031,10.75,72458.3,-10.19,-16.45,-16.55,0,*5B
1483365632.1,1032,10.69,72452.3,-10.19,-16.31,-16.13,0,*59
1483365633.36,1033,10.75,72450.5,-10.19,-16.27,-16.13,0,*5F
1483365634.6,1034,10.75,72446.8,-10.19,-16.13,-16.75,0,*5F
1483365635.81,1035,10.75,72434.5,-10.19,-16.75,-16.93,0,*56
1483365637.02,1036,10.75,72444.3,-10.19,-17.35,-16.89,0,*5B
1483365638.29,1037,10.75,72440.0,-10.19,-16.65,-15.85,0,*51
1483365639.53,1038,10.75,72430.8,-10.19,-16.27,-15.25,0,*52
1483365640.79,1039,10.75,72428.0,-10.21,-15.35,-14.89,0,*5F
1483365642.02,1040,10.75,72416.8,-10.21,-15.15,-14.69,0,*5D
1483365643.25,1041,10.75,72420.3,-10.15,-14.75,-14.23,0,*52
1483365644.48,1042,10.75,72414.5,-10.19,-14.37,-13.87,0,*52
1483365645.72,1043,10.75,72414.5,-10.19,-14.11,-13.87,0,*57
1483365647.0,1044,10.75,72412.3,-10.21,-14.01,-13.83,0,*5E
1483365648.27,1045,10.75,72420.8,-10.19,-13.97,-13.83,0,*5C
1483365649.53,1046,10.75,72432.0,-10.19,-13.97,-13.83,0,*5F
1483365650.78,1047,10.75,72442.8,-10.19,-13.87,-13.87,0,*5B
1483365651.99,1048,10.75,72440.0,-10.19,-13.69,-13.55,0,*5B
1483365653.2,1049,10.75,72444.5,-10.19,-13.65,-13.43,0,*51
1483365654.43,1050,10.75,72450.0,-10.15,-13.51,-13.29,0,*5E
1483365655.68,1051,10.75,72446.0,-10.15,-13.29,-13.01,0,*5A
1483365656.92,1052,10.75,72446.0,-10.19,-13.29,-12.97,0,*5B
1483365658.12,1053,10.75,72448.3,-10.15,-13.15,-12.89,0,*56
1483365659.35,1054,10.75,72448.8,-10.15,-13.11,-12.83,0,*5F
1483365660.55,1055,10.75,72450.0,-10.15,-13.23,-13.15,0,*51
1483365661.75,1056,10.75,72448.5,-10.15,-13.23,-13.23,0,*57
1483365662.95,1057,10.75,72448.0,-10.15,-13.15,-13.43,0,*55
1483365664.18,1058,10.75,72450.3,-10.13,-13.23,-13.65,0,*5D
1483365665.38,1059,10.75,72446.0,-10.15,-13.43,-14.11,0,*58
1483365666.64,1060,10.75,72452.5,-10.15,-13.29,-14.01,0,*5F
1483365667.85,1061,10.69,72444.5,-10.15,-13.51,-14.29,0,*5B
1483365669.08,1062,10.69,72444.3,-10.15,-13.79,-14.37,0,*5D
1483365670.31,1063,10.75,72450.5,-10.15,-14.01,-14.15,0,*54
1483365671.55,1064,10.75,72446.0,-10.13,-14.11,-13.65,0,*54
1483365672.78,1065,10.69,72450.3,-10.15,-14.11,-13.37,0,*54
1483365674.0,1066,10.75,72464.5,-10.15,-13.65,-13.01,0,*56
1483365675.21,1067,10.75,72456.3,-10.15,-13.55,-12.97,0,*5A
1483365676.44,1068,10.75,72472.3,-10.13,-13.23,-12.93,0,*56
1483365677.64,1069,10.69,72460.5,-10.15,-13.15,-13.11,0,*5F
1483365678.85,1070,10.75,72454.5,-10.15,-13.11,-13.23,0,*52
1483365680.05,1071,10.69,72434.5,-10.15,-13.23,-13.23,0,*52
1483365681.28,1072,10.69,72436.0,-10.15,-13.37,-13.51,0,*51
1483365682.49,1073,10.75,72424.8,-10.15,-13.55,-14.37,0,*53
1483365683.74,1074,10.75,72402.3,-10.13,-14.69,-14.79,0,*50
1483365684.97,1075,10.69,72418.8,-10.15,-15.15,-14.55,0,*53
1483365686.2,1076,10.75,72400.0,-10.15,-15.53,-14.51,0,*56
1483365687.46,1077,10.75,72418.0,-10.19,-15.85,-14.51,0,*50
1483365688.69,1078,10.69,72412.8,-10.19,-15.57,-13.65,0,*50
1483365689.89,1079,10.75,72404.5,-10.19,-14.69,-13.23,0,*5F
1483365691.11,1080,10.75,72404.8,-10.19,-14.11,-12.97,0,*58
1483365692.35,1081,10.75,72402.0,-10.19,-13.55,-12.71,0,*56
1483365693.61,1082,10.75,72432.8,-10.21,-13.43,-12.57,0,*5D
1483365694.84,1083,10.75,72434.3,-10.19,-13.01,-12.39,0,*59
1483365696.05,1084,10.75,72430.5,-10.19,-13.11,-12.39,0,*5F
1483365697.31,1085,10.75,72440.3,-10.15,-12.79,-12.11,0,*57
1483365698.54,1086,10.69,72438.0,-10.19,-12.25,-11.85,0,*5F
1483365699.81,1087,10.75,72442.3,-10.19,-11.93,-11.73,0,*59
1483365701.09,1088,10.75,72432.3,-10.21,-11.89,-11.73,0,*56
1483365702.35,1089,10.75,72422.8,-10.19,-11.81,-11.67,0,*51
1483365703.61,1090,10.69,72422.8,-10.15,-11.93,-11.85,0,*5A
1483365704.87,1091,10.75,72410.5,-10.15,-11.97,-11.93,0,*58
1483365706.09,1092,10.75,72406.5,-10.15,-12.03,-11.97,0,*51
1483365707.36,1093,10.69,72422.8,-10.19,-11.93,-11.85,0,*55
1483365708.63,1094,10.75,72422.8,-10.19,-11.93,-11.93,0,*55
1483365709.89,1095,10.75,72436.8,-10.19,-11.85,-11.85,0,*54
1483365711.17,1096,10.75,72442.5,-10.21,-11.89,-11.89,0,*5C
1483365712.46,1097,10.69,72436.0,-10.21,-11.73,-11.63,0,*5C
1483365713.72,1098,10.69,72436.8,-10.19,-11.67,-11.59,0,*54
1483365714.98,1099,10.69,72442.0,-10.19,-11.59,-11.59,0,*58
1483365716.24,1100,10.69,72446.3,-10.19,-11.59,-11.59,0,*59
1483365717.47,1101,10.75,72452.5,-10.19,-11.55,-11.45,0,*59
1483365718.74,1102,10.75,72454.5,-10.19,-11.59,-11.59,0,*5B
1483365719.99,1103,10.69,72454.3,-10.21,-11.51,-11.45,0,*54
1483365721.21,1104,10.69,72452.5,-10.19,-11.41,-11.41,0,*5D
1483365722.43,1105,10.75,72452.3,-10.15,-11.41,-11.33,0,*55
1483365723.64,1106,10.75,72448.8,-10.15,-11.41,-11.41,0,*53
1483365724.88,1107,10.75,72450.5,-10.15,-11.33,-11.41,0,*57
1483365726.13,1108,10.75,72446.5,-10.15,-11.29,-11.33,0,*56
1483365727.34,1109,10.75,72440.0,-10.15,-11.41,-11.41,0,*5C
1483365728.62,1110,10.69,72440.8,-10.13,-11.37,-11.37,0,*52
1483365729.9,1111,10.69,72440.5,-10.13,-11.51,-11.51,0,*53
1483365731.15,1112,10.75,72448.5,-10.15,-11.59,-11.67,0,*5B
1483365732.44,1113,10.75,72466.3,-10.13,-11.51,-11.55,0,*55
1483365733.72,1114,10.69,72468.0,-10.13,-11.51,-11.63,0,*57
1483365735.01,1115,10.69,72470.0,-10.13,-11.67,-11.89,0,*57
1483365736.29,1116,10.75,72466.8,-10.13,-11.81,-12.11,0,*5E
1483365737.55,1117,10.75,72452.3,-10.13,-11.89,-12.21,0,*54
1483365738.84,1118,10.75,72450.3,-10.13,-11.89,-12.35,0,*5E
1483365740.13,1119,10.69,72448.0,-10.13,-11.93,-12.53,0,*54
1483365741.4,1120,10.75,72446.5,-10.13,-12.21,-12.79,0,*5C
1483365742.65,1121,10.75,72440.8,-10.13,-12.61,-13.11,0,*56
1483365743.9,1122,10.75,72428.5,-10.09,-12.61,-13.19,0,*56
1483365745.12,1123,10.75,72440.3,-10.09,-12.93,-13.19,0,*5A
1483365746.35,1124,10.75,72444.5,-10.09,-13.07,-13.01,0,*58
1483365747.59,1125,10.69,72442.3,-10.07,-12.93,-12.93,0,*51
1483365748.86,1126,10.75,72444.3,-10.09,-12.75,-12.71,0,*58
1483365750.1,1127,10.75,72454.3,-10.09,-12.61,-12.47,0,*59
1483365751.31,1128,10.69,72450.8,-10.09,-12.47,-12.43,0,*56
1483365752.53,1129,10.75,72458.0,-10.09,-12.29,-12.29,0,*53
1483365753.75,1130,10.75,72454.5,-10.09,-12.29,-12.29,0,*5B
1483365754.97,1131,10.75,72464.3,-10.09,-12.21,-12.43,0,*5E
1483365756.24,1132,10.75,72470.8,-10.07,-12.29,-12.71,0,*5A
1483365757.5,1133,10.69,72456.8,-10.09,-12.61,-13.01,0,*5F
1483365758.76,1134,10.75,72460.5,-10.09,-12.71,-13.29,0,*53
1483365759.98,1135,10.69,72452.8,-10.09,-12.89,-13.19,0,*56
1483365761.19,1136,10.75,72462.3,-10.09,-13.07,-13.15,0,*5E
1483365762.42,1137,10.75,72466.5,-10.07,-12.93,-12.89,0,*59
1483365763.71,1138,10.69,72470.5,-10.07,-13.01,-12.75,0,*5F
1483365764.93,1139,10.69,72466.8,-10.09,-12.93,-12.93,0,*52
1483365766.16,1140,10.75,72466.0,-10.07,-12.93,-13.07,0,*5E
1483365767.43,1141,10.69,72452.0,-10.07,-13.01,-13.19,0,*5A
1483365768.66,1142,10.75,72448.8,-10.09,-13.01,-13.07,0,*58
1483365769.92,1143,10.75,72450.5,-10.07,-12.89,-13.29,0,*5A
1483365771.14,1144,10.75,72444.8,-10.07,-13.15,-13.43,0,*55
1483365772.4,1145,10.69,72442.8,-10.07,-13.29,-13.47,0,*5F
1483365773.63,1146,10.69,72434.5,-10.09,-13.33,-13.55,0,*5A
1483365774.87,1147,10.69,72438.0,-10.09,-13.29,-13.73,0,*54
1483365776.1,1148,10.69,72440.3,-10.09,-13.33,-13.73,0,*50
1483365777.36,1149,10.69,72452.5,-10.09,-13.29,-13.79,0,*50
1483365778.57,1150,10.69,72460.5,-10.09,-13.47,-14.19,0,*51
1483365779.83,1151,10.69,72458.8,-10.09,-13.79,-14.55,0,*55
1483365781.08,1152,10.69,72452.5,-10.09,-14.19,-14.93,0,*5D
1483365782.36,1153,10.69,72454.5,-10.13,-14.97,-15.39,0,*50
1483365783.6,1154,10.75,72456.8,-10.09,-14.79,-15.07,0,*51
1483365784.85,1155,10.75,72454.8,-10.13,-14.69,-14.97,0,*52
1483365786.11,1156,10.69,72454.8,-10.13,-14.51,-15.11,0,*55
1483365787.4,1157,10.75,72456.8,-10.13,-14.79,-15.35,0,*58
1483365788.67,1158,10.75,72454.0,-10.13,-15.21,-14.83,0,*57
1483365789.92,1159,10.69,72446.8,-10.13,-14.93,-14.11,0,*55
1483365791.16,1160,10.75,72446.8,-10.13,-14.19,-13.51,0,*5E
1483365792.39,1161,10.75,72440.8,-10.13,-13.65,-13.51,0,*53
1483365793.6,1162,10.75,72446.0,-10.15,-13.51,-13.55,0,*55
1483365794.86,1163,10.69,72448.3,-10.13,-13.47,-13.61,0,*52
1483365796.14,1164,10.69,72454.8,-10.13,-13.37,-13.61,0,*52
1483365797.42,1165,10.75,72456.0,-10.13,-13.37,-13.79,0,*5A
1483365798.67,1166,10.69,72456.3,-10.13,-13.23,-13.79,0,*5C
1483365799.94,1167,10.69,72458.0,-10.13,-13.19,-13.97,0,*54
1483365801.22,1168,10.75,72462.5,-10.13,-13.33,-14.47,0,*59
1483365802.48,1169,10.75,72460.5,-10.13,-13.61,-14.69,0,*53
1483365803.72,1170,10.75,72464.3,-10.09,-13.79,-15.07,0,*50
1483365804.96,1171,10.69,72460.8,-10.09,-14.19,-15.21,0,*54
1483365806.2,1172,10.69,72454.0,-10.13,-14.61,-15.53,0,*56
1483365807.46,1173,10.75,72460.5,-10.13,-14.83,-15.63,0,*58
1483365808.71,1174,10.69,72466.3,-10.13,-14.69,-15.35,0,*58
1483365809.99,1175,10.75,72472.0,-10.13,-14.47,-15.53,0,*55
1483365811.24,1176,10.75,72468.8,-10.13,-15.21,-16.41,0,*57
1483365812.47,1177,10.75,72470.5,-10.13,-15.53,-16.83,0,*5D
1483365813.73,1178,10.69,72460.3,-10.13,-16.23,-18.07,0,*54
1483365814.99,1179,10.69,72464.8,-10.15,-17.93,-19.27,0,*5A
1483365816.21,1180,10.69,72468.8,-10.15,-18.59,-19.75,0,*52
1483365817.44,1181,10.69,72466.8,-10.15,-18.41,-19.61,0,*5F
1483365818.68,1182,10.69,72456.3,-10.13,-18.21,-19.37,0,*5F
1483365819.88,1183,10.75,72450.0,-10.15,-18.49,-19.51,0,*56
1483365821.11,1184,10.69,72442.8,-10.15,-18.55,-19.47,0,*5B
1483365822.34,1185,10.75,72448.8,-10.15,-18.69,-19.61,0,*51
1483365823.55,1186,10.75,72444.5,-10.15,-18.83,-19.95,0,*5D
1483365824.75,1187,10.75,72450.5,-10.15,-18.83,-19.91,0,*58
1483365826.0,1188,10.75,72460.0,-10.15,-18.89,-19.81,0,*5C
1483365827.21,1189,10.75,72460.0,-10.15,-18.83,-19.91,0,*56
1483365828.42,1190,10.69,72458.0,-10.15,-18.99,-19.95,0,*51
1483365829.62,1191,10.75,72464.3,-10.15,-19.03,-19.91,0,*56
1483365830.86,1192,10.69,72464.8,-10.19,-19.13,-19.65,0,*53
1483365832.08,1193,10.75,72456.8,-10.19,-18.99,-19.13,0,*50
1483365833.28,1194,10.75,72448.0,-10.15,-18.83,-18.49,0,*5E
1483365834.49,1195,10.75,72442.0,-10.19,-18.25,-18.11,0,*52
1483365835.74,1196,10.75,72438.3,-10.19,-17.79,-17.93,0,*52
1483365836.97,1197,10.69,72432.8,-10.19,-17.31,-17.55,0,*55
1483365838.24,1198,10.75,72426.3,-10.15,-17.17,-17.97,0,*5C
1483365839.47,1199,10.75,72424.0,-10.19,-17.17,-18.21,0,*53
1483365840.73,1200,10.75,72430.0,-10.21,-17.35,-18.55,0,*58
1483365841.97,1201,10.75,72438.0,-10.19,-17.45,-18.41,0,*50
1483365843.21,1202,10.75,72442.5,-10.19,-17.79,-18.59,0,*55
1483365844.42,1203,10.75,72446.0,-10.19,-17.83,-18.69,0,*52
1483365845.67,1204,10.69,72444.3,-10.19,-17.97,-18.73,0,*5B
1483365846.91,1205,10.75,72456.0,-10.15,-17.93,-18.59,0,*5A
1483365848.15,1206,10.69,72452.5,-10.15,-17.79,-18.89,0,*50
1483365849.38,1207,10.69,72446.3,-10.15,-18.21,-19.31,0,*51
1483365850.62,1208,10.69,72448.5,-10.19,-18.69,-19.81,0,*55
1483365851.84,1209,10.75,72458.5,-10.19,-19.13,-20.09,0,*52
1483365853.05,1210,10.75,72456.3,-10.19,-19.17,-19.95,0,*51
1483365854.27,1211,10.75,72442.5,-10.19,-19.17,-19.91,0,*54
1483365855.53,1212,10.75,72438.8,-10.21,-19.17,-19.81,0,*5D
1483365856.77,1213,10.75,72442.5,-10.19,-19.17,-19.61,0,*59
1483365857.99,1214,10.75,72444.0,-10.19,-19.13,-19.51,0,*59
1483365859.25,1215,10.75,72444.3,-10.21,-19.17,-19.31,0,*51
1483365860.48,1216,10.75,72444.5,-10.19,-19.03,-18.89,0,*5E
1483365861.69,1217,10.69,72450.8,-10.19,-18.99,-18.41,0,*59
1483365862.95,1218,10.75,72444.0,-10.21,-18.79,-17.59,0,*55
1483365864.21,1219,10.75,72446.0,-10.21,-18.01,-16.83,0,*5D
1483365865.47,1220,10.75,72438.0,-10.19,-17.07,-16.31,0,*5C
1483365866.68,1221,10.75,72444.0,-10.19,-16.93,-16.55,0,*53
1483365867.93,1222,10.75,72444.8,-10.21,-17.07,-16.45,0,*56
1483365869.19,1223,10.75,72452.8,-10.21,-16.79,-16.31,0,*5C
1483365870.47,1224,10.75,72452.5,-10.21,-16.31,-15.89,0,*57
1483365871.7,1225,10.69,72450.5,-10.15,-16.27,-15.63,0,*52
1483365872.97,1226,10.75,72448.5,-10.21,-16.23,-15.49,0,*5A
1483365874.23,1227,10.75,72448.5,-10.21,-15.89,-15.15,0,*51
1483365875.49,1228,10.75,72448.5,-10.21,-15.67,-14.93,0,*51
1483365876.75,1229,10.75,72456.8,-10.21,-15.43,-14.89,0,*5D
1483365878.03,1230,10.75,72454.5,-10.21,-15.57,-15.21,0,*53
1483365879.27,1231,10.75,72446.0,-10.21,-15.63,-15.29,0,*5D
1483365880.55,1232,10.75,72450.0,-10.21,-15.57,-14.93,0,*59
1483365881.84,1233,10.75,72444.0,-10.21,-15.57,-14.79,0,*5C
1483365883.07,1234,10.69,72446.8,-10.19,-15.29,-14.55,0,*57
1483365884.34,1235,10.75,72452.3,-10.21,-15.01,-14.43,0,*50
1483365885.6,1236,10.75,72450.0,-10.21,-14.79,-14.29,0,*51
1483365886.87,1237,10.75,72452.5,-10.21,-14.47,-14.15,0,*52
1483365888.13,1238,10.75,72444.0,-10.21,-14.19,-14.05,0,*57
1483365889.4,1239,10.75,72446.0,-10.21,-14.15,-14.05,0,*5A
1483365890.66,1240,10.75,72442.8,-10.21,-14.19,-13.87,0,*55
1483365891.92,1241,10.75,72436.3,-10.21,-13.93,-13.61,0,*59
1483365893.15,1242,10.75,72422.0,-10.21,-13.47,-13.55,0,*54
1483365894.37,1243,10.75,72426.3,-10.21,-13.55,-13.69,0,*59
1483365895.66,1244,10.75,72424.3,-10.21,-13.61,-13.61,0,*51
1483365896.92,1245,10.75,72434.3,-10.21,-13.47,-13.61,0,*54
1483365898.19,1246,10.69,72430.0,-10.21,-13.33,-13.87,0,*5C
1483365899.43,1247,10.75,72436.5,-10.21,-13.55,-14.19,0,*5D
1483365900.69,1248,10.75,72440.0,-10.21,-13.87,-14.29,0,*5E
1483365901.92,1249,10.75,72444.3,-10.21,-14.19,-14.33,0,*54
1483365903.14,1250,10.75,72452.0,-10.23,-14.19,-14.15,0,*5A
1483365904.38,1251,10.75,72456.8,-10.23,-14.15,-14.05,0,*56
1483365905.59,1252,10.75,72458.5,-10.23,-14.19,-14.15,0,*58
1483365906.83,1253,10.69,72454.5,-10.21,-14.19,-13.93,0,*52
1483365908.07,1254,10.75,72450.8,-10.21,-14.15,-13.73,0,*57
1483365909.33,1255,10.75,72448.5,-10.21,-14.01,-13.47,0,*54
1483365910.58,1256,10.75,72450.8,-10.21,-13.87,-13.55,0,*5D
1483365911.84,1257,10.75,72452.5,-10.21,-13.69,-13.29,0,*57
1483365913.07,1258,10.75,72458.0,-10.21,-13.47,-13.07,0,*58
1483365914.32,1259,10.75,72458.0,-10.21,-13.19,-13.01,0,*54
1483365915.58,1260,10.75,72456.0,-10.23,-13.01,-13.01,0,*55
1483365916.84,1261,10.75,72458.0,-10.21,-13.01,-13.19,0,*5F
1483365918.05,1262,10.75,72466.8,-10.19,-13.15,-13.23,0,*5B
1483365919.25,1263,10.75,72466.8,-10.19,-12.89,-13.15,0,*5B
1483365920.51,1264,10.75,72460.8,-10.21,-12.93,-13.29,0,*53
1483365921.77,1265,10.75,72464.5,-10.21,-13.01,-13.55,0,*53
1483365923.06,1266,10.75,72466.5,-10.21,-13.29,-14.01,0,*5C
1483365924.35,1267,10.75,72460.8,-10.21,-13.83,-14.55,0,*5C
1483365925.62,1268,10.75,72466.3,-10.21,-14.01,-14.61,0,*59
1483365926.86,1269,10.75,72470.8,-10.21,-14.15,-14.69,0,*55
1483365928.09,1270,10.75,72460.5,-10.21,-14.29,-14.61,0,*5A
1483365929.36,1271,10.75,72452.5,-10.21,-14.47,-14.61,0,*53
1483365930.63,1272,10.75,72452.3,-10.21,-14.47,-14.15,0,*53
1483365931.86,1273,10.75,72452.0,-10.21,-14.15,-13.93,0,*5C
1483365933.09,1274,10.75,72444.5,-10.23,-13.69,-13.87,0,*50
1483365934.29,1275,10.75,72446.0,-10.23,-13.55,-13.93,0,*5B
1483365935.5,1276,10.75,72446.8,-10.23,-13.69,-14.61,0,*5D
1483365936.74,1277,10.75,72444.3,-10.23,-14.05,-15.15,0,*53
1483365937.99,1278,10.75,72450.5,-10.23,-14.47,-15.49,0,*53
1483365939.19,1279,10.75,72444.8,-10.23,-14.61,-15.67,0,*5A
1483365940.41,1280,10.75,72442.5,-10.23,-14.93,-16.45,0,*52
1483365941.67,1281,10.75,72432.3,-10.25,-15.67,-17.41,0,*5A
1483365942.91,1282,10.75,72438.0,-10.25,-16.55,-18.17,0,*57
1483365944.17,1283,10.75,72434.3,-10.21,-17.25,-17.83,0,*56
1483365945.41,1284,10.75,72434.8,-10.23,-17.41,-17.49,0,*57
1483365946.66,1285,10.75,72424.5,-10.23,-17.21,-17.25,0,*5A
1483365947.94,1286,10.75,72438.5,-10.25,-17.11,-17.21,0,*58
1483365949.17,1287,10.75,72434.5,-10.23,-16.93,-16.69,0,*59
1483365950.43,1288,10.75,72436.5,-10.25,-16.51,-16.37,0,*55
1483365951.66,1289,10.75,72446.3,-10.23,-16.51,-16.03,0,*55
1483365952.87,1290,10.75,72450.0,-10.23,-16.37,-15.95,0,*51
1483365954.13,1291,10.75,72450.3,-10.25,-15.81,-15.95,0,*58
1483365955.4,1292,10.75,72450.5,-10.25,-16.13,-16.55,0,*5C
1483365956.66,1293,10.75,72450.5,-10.25,-16.55,-16.51,0,*5B
1483365957.88,1294,10.75,72448.3,-10.23,-16.93,-16.31,0,*56
1483365959.17,1295,10.75,72458.0,-10.25,-16.69,-16.27,0,*53
1483365960.43,1296,10.75,72456.0,-10.25,-17.11,-15.71,0,*5E
1483365961.71,1297,10.75,72454.3,-10.25,-16.65,-14.93,0,*50
1483365962.92,1298,10.75,72442.5,-10.23,-15.63,-14.15,0,*52
1483365964.15,1299,10.75,72438.8,-10.25,-14.65,-13.65,0,*52
1483365965.41,1300,10.75,72432.5,-10.25,-13.97,-13.51,0,*5E
1483365966.69,1301,10.75,72436.3,-10.25,-13.79,-13.37,0,*5F
1483365967.96,1302,10.75,72444.3,-10.25,-13.61,-13.19,0,*59
1483365969.22,1303,10.75,72442.5,-10.25,-13.37,-12.89,0,*53
1483365970.49,1304,10.75,72450.8,-10.25,-13.19,-12.75,0,*5B
1483365971.75,1305,10.75,72452.5,-10.25,-12.97,-12.65,0,*5C
1483365973.0,1306,10.75,72452.8,-10.25,-12.89,-12.61,0,*54
1483365974.27,1307,10.75,72458.5,-10.25,-12.75,-12.47,0,*52
1483365975.5,1308,10.75,72456.3,-10.25,-12.47,-12.47,0,*5C
1483365976.74,1309,10.75,72444.8,-10.23,-12.53,-12.47,0,*5E
1483365978.0,1310,10.75,72448.0,-10.25,-12.53,-12.47,0,*50
1483365979.21,1311,10.75,72450.8,-10.23,-12.43,-12.43,0,*52
1483365980.46,1312,10.75,72448.3,-10.25,-12.47,-12.61,0,*53
1483365981.75,1313,10.75,72446.5,-10.25,-12.53,-12.75,0,*52
1483365982.99,1314,10.75,72450.0,-10.25,-12.47,-12.89,0,*53
1483365984.25,1315,10.75,72452.0,-10.25,-12.75,-12.93,0,*58
1483365985.51,1316,10.75,72442.5,-10.25,-12.65,-12.93,0,*5A
1483365986.75,1317,10.75,72440.5,-10.25,-12.89,-13.19,0,*5A
1483365987.99,1318,10.75,72444.5,-10.25,-12.93,-13.23,0,*57
1483365989.25,1319,10.75,72454.8,-10.25,-12.93,-13.37,0,*53
1483365990.51,1320,10.75,72456.0,-10.25,-12.97,-13.61,0,*5E
1483365991.76,1321,10.75,72454.8,-10.25,-13.23,-13.79,0,*58
1483365992.97,1322,10.75,72448.5,-10.23,-13.55,-14.19,0,*5D
1483365994.23,1323,10.75,72444.3,-10.25,-13.87,-14.33,0,*5D
1483365995.47,1324,10.75,72454.8,-10.25,-14.19,-14.61,0,*5D
1483365996.74,1325,10.75,72458.5,-10.23,-14.01,-14.47,0,*57
1483365997.99,1326,10.75,72452.8,-10.23,-13.87,-14.55,0,*5E
1483365999.23,1327,10.75,72456.5,-10.23,-13.83,-14.69,0,*54
1483366000.5,1328,10.75,72460.8,-10.25,-14.11,-14.97,0,*50
1483366001.71,1329,10.75,72460.3,-10.23,-14.19,-15.15,0,*54
1483366002.97,1330,10.75,72464.8,-10.23,-14.43,-15.35,0,*51
1483366004.2,1331,10.75,72464.3,-10.23,-14.51,-15.67,0,*54
1483366005.41,1332,10.75,72466.8,-10.23,-14.61,-15.67,0,*54
1483366006.66,1333,10.75,72462.0,-10.23,-15.01,-15.81,0,*5A
1483366007.92,1334,10.75,72466.5,-10.25,-14.93,-15.53,0,*5E
1483366009.18,1335,10.75,72466.8,-10.25,-14.75,-15.53,0,*57
1483366010.44,1336,10.75,72460.8,-10.23,-14.75,-15.89,0,*55
1483366011.69,1337,10.75,72466.5,-10.23,-15.01,-16.31,0,*56
1483366012.89,1338,10.75,72462.3,-10.23,-15.29,-16.45,0,*50
1483366014.11,1339,10.75,72462.5,-10.23,-15.81,-16.93,0,*58
1483366015.35,1340,10.75,72454.5,-10.23,-16.17,-16.79,0,*5E
1483366016.58,1341,10.75,72456.8,-10.23,-16.09,-16.37,0,*5A
1483366017.85,1342,10.75,72454.8,-10.25,-16.13,-16.75,0,*52
1483366019.09,1343,10.75,72450.3,-10.25,-16.41,-16.83,0,*5D
1483366020.35,1344,10.75,72454.5,-10.25,-16.41,-16.23,0,*50
1483366021.62,1345,10.75,72462.8,-10.25,-15.71,-15.39,0,*59
1483366022.85,1346,10.75,72466.8,-10.23,-15.43,-15.15,0,*53
1483366024.09,1347,10.75,72466.8,-10.25,-15.53,-15.67,0,*50
1483366025.34,1348,10.75,72462.8,-10.25,-15.99,-16.13,0,*59
1483366026.6,1349,10.75,72460.3,-10.23,-16.23,-16.17,0,*58
1483366027.84,1350,10.75,72462.5,-10.25,-16.41,-15.63,0,*52
1483366029.07,1351,10.75,72456.8,-10.23,-16.37,-15.35,0,*57
1483366030.31,1352,10.75,72456.0,-10.23,-15.85,-14.61,0,*5E
1483366031.51,1353,10.75,72452.3,-10.23,-15.07,-14.15,0,*56
1483366032.77,1354,10.75,72460.3,-10.23,-14.55,-13.61,0,*53
1483366034.01,1355,10.75,72450.8,-10.23,-14.19,-13.33,0,*5D
1483366035.24,1356,10.75,72448.8,-10.23,-13.87,-13.07,0,*59
1483366036.47,1357,10.75,72446.8,-10.25,-13.65,-12.93,0,*5E
1483366037.76,1358,10.75,72442.0,-10.21,-13.33,-12.75,0,*5E
1483366039.03,1359,10.75,72446.3,-10.21,-13.19,-12.71,0,*53
1483366040.24,1360,10.75,72452.3,-10.23,-12.93,-12.43,0,*59
1483366041.49,1361,10.75,72456.0,-10.23,-12.75,-12.15,0,*53
1483366042.75,1362,10.75,72460.8,-10.23,-12.61,-12.07,0,*56
1483366043.98,1363,10.75,72454.8,-10.23,-12.47,-11.89,0,*56
1483366045.24,1364,10.75,72458.5,-10.21,-12.29,-11.97,0,*54
1483366046.51,1365,10.75,72458.5,-10.21,-12.29,-11.97,0,*55
1483366047.79,1366,10.75,72456.3,-10.21,-12.15,-11.89,0,*56
1483366049.08,1367,10.75,72452.5,-10.21,-12.07,-11.85,0,*58
1483366050.34,1368,10.75,72450.5,-10.21,-12.03,-11.89,0,*5F
1483366051.6,1369,10.75,72452.5,-10.21,-12.03,-11.89,0,*5E
1483366052.88,1370,10.75,72444.8,-10.21,-11.89,-11.85,0,*5B
1483366054.14,1371,10.75,72446.3,-10.23,-11.89,-11.85,0,*58
1483366055.39,1372,10.75,72444.5,-10.19,-11.73,-11.73,0,*5E
1483366056.67,1373,10.75,72448.5,-10.21,-11.77,-11.77,0,*54
1483366057.95,1374,10.75,72452.5,-10.21,-11.85,-11.77,0,*5E
1483366059.23,1375,10.75,72452.5,-10.21,-11.77,-11.77,0,*52
1483366060.49,1376,10.75,72454.0,-10.19,-11.85,-11.77,0,*57
1483366061.74,1377,10.75,72452.0,-10.19,-11.81,-11.73,0,*56
1483366063.0,1378,10.75,72454.0,-10.19,-11.81,-11.73,0,*59
1483366064.25,1379,10.75,72450.5,-10.19,-11.85,-11.81,0,*51
1483366065.51,1380,10.75,72450.3,-10.19,-11.85,-11.85,0,*53
1483366066.79,1381,10.75,72450.0,-10.21,-11.85,-11.77,0,*54
1483366068.04,1382,10.75,72452.8,-10.19,-11.81,-11.81,0,*51
1483366069.3,1383,10.75,72456.8,-10.19,-11.85,-11.85,0,*50
1483366070.56,1384,10.75,72460.8,-10.19,-11.85,-11.85,0,*57
1483366071.82,1385,10.75,72456.8,-10.19,-11.85,-11.85,0,*56
1483366073.08,1386,10.75,72460.5,-10.19,-11.85,-11.85,0,*55
1483366074.34,1387,10.75,72464.3,-10.19,-11.81,-11.93,0,*57
1483366075.57,1388,10.75,72468.3,-10.15,-11.97,-12.03,0,*59
1483366076.8,1389,10.75,72476.0,-10.15,-12.11,-12.25,0,*51
1483366078.05,1390,10.75,72452.8,-10.15,-12.15,-12.15,0,*5E
1483366079.3,1391,10.75,72442.3,-10.15,-12.15,-12.11,0,*5B
1483366080.51,1392,10.75,72432.0,-10.15,-12.03,-12.25,0,*58
1483366081.76,1393,10.75,72434.5,-10.15,-11.97,-12.11,0,*50
1483366083.02,1394,10.75,72434.0,-10.19,-11.97,-12.11,0,*5B
1483366084.26,1395,10.75,72434.3,-10.19,-12.15,-12.29,0,*58
1483366085.49,1396,10.75,72440.0,-10.19,-12.15,-12.39,0,*5A
1483366086.73,1397,10.75,72448.0,-10.19,-12.15,-12.39,0,*5B
1483366087.97,1398,10.75,72448.3,-10.19,-12.11,-12.39,0,*50
1483366089.2,1399,10.75,72456.5,-10.15,-12.15,-12.43,0,*54
1483366090.46,1400,10.75,72454.8,-10.21,-12.47,-12.75,0,*56
1483366091.7,1401,10.75,72462.0,-10.19,-12.65,-12.97,0,*50
1483366092.93,1402,10.75,72460.3,-10.19,-12.53,-12.89,0,*59
1483366094.17,1403,10.75,72464.5,-10.19,-12.71,-13.11,0,*58
1483366095.4,1404,10.75,72464.3,-10.19,-12.79,-13.23,0,*56
1483366096.6,1405,10.75,72472.5,-10.15,-12.97,-13.43,0,*5D
1483366097.84,1406,10.75,72466.5,-10.19,-13.01,-13.43,0,*5C